Weather History for KFWA - December, 2011

Change the Weather History Date:

Saturday, December 31, 2011

  Actual Average Record
Temperature  
Mean Temperature 40 °F 26 °F  
Max Temperature 42 °F 33 °F 61 °F (1951)
Min Temperature 37 °F 19 °F -14 °F (1976)
Degree Days  
Heating Degree Days 25 39  
Month to date heating degree days 916 1111  
Since 1 July heating degree days 1982 2328  
Cooling Degree Days 0 0  
Month to date cooling degree days 0 0  
Year to date cooling degree days 1124 809  
Moisture  
Dew Point 35 °F    
Average Humidity 81    
Maximum Humidity 92    
Minimum Humidity 70    
Precipitation  
Precipitation T in 0.08 in 1.25 in (1978)
Month to date precipitation 3.77 2.77  
Year to date precipitation 49.54 38.34  
Snow  
Snow 0.00 in 0.30 in 3.70 in (1969)
Month to date snowfall 6.6 8.5  
Since 1 July snowfall 11.0 10.6  
Snow Depth 0.00 in    
Sea Level Pressure  
Sea Level Pressure 29.93 in    
Wind  
Wind Speed 10 mph (WSW)    
Max Wind Speed 21 mph    
Max Gust Speed 25 mph    
Visibility 8 miles    
Events      
T = Trace of Precipitation, MM = Missing Value Source: NWS Daily Summary

Daily Weather History Graph

Daily Weather History Graph

Search for Another Location

Airport or City:

Trip Planner

Search our weather history database for the weather conditions in past years. The results will help you decide how hot, cold, wet, or windy it might be!

Date:

Astronomy

Dec. 31, 2011 Rise Set
Actual Time 8:05 AM EST 5:22 PM EST
Civil Twilight 7:34 AM EST 5:53 PM EST
Nautical Twilight 6:59 AM EST 6:27 PM EST
Astronomical Twilight 6:26 AM EST 7:01 PM EST
Moon 11:46 AM EST (12/31) No Moon Set
Length of Visible Light 10h 18m
Length of Day
9h 16m
Waxing Crescent, 45% of the Moon is Illuminated
Dec 31
Waxing Crescent
Jan 1
First Quarter
Jan 9
Full
Jan 16
Last Quarter
Jan 23
New

Hourly Weather History & Observations

Time (EST) Temp. Windchill Dew Point Humidity Pressure Visibility Wind Dir Wind Speed Gust Speed Precip Events Conditions
12:54 AM 39.0 °F 31.0 °F 36.0 °F 89% 29.70 in 8.0 mi WSW 13.8 mph 19.6 mph N/A   Overcast
1:17 AM 39.2 °F 32.0 °F 35.6 °F 87% 29.70 in 8.0 mi WSW 11.5 mph - N/A   Overcast
1:54 AM 39.0 °F 32.8 °F 37.0 °F 93% 29.72 in 3.0 mi WSW 9.2 mph - 0.00 in   Light Drizzle
2:03 AM 39.2 °F 33.0 °F 37.4 °F 93% 29.71 in 3.0 mi WSW 9.2 mph - 0.00 in   Light Drizzle
2:54 AM 39.0 °F 32.3 °F 37.0 °F 93% 29.75 in 3.0 mi WSW 10.4 mph - 0.00 in   Overcast
3:54 AM 39.2 °F 31.6 °F 37.4 °F 93% 29.78 in 3.0 mi West 12.7 mph - N/A   Overcast
4:54 AM 39.0 °F 31.8 °F 36.0 °F 89% 29.83 in 7.0 mi WNW 11.5 mph - N/A   Overcast
5:26 AM 39.2 °F 32.5 °F 35.6 °F 87% 29.83 in 7.0 mi WNW 10.4 mph 16.1 mph N/A   Overcast
5:54 AM 39.0 °F 34.0 °F 36.0 °F 89% 29.88 in 9.0 mi WNW 6.9 mph - N/A   Overcast
6:54 AM 39.2 °F 33.6 °F 35.6 °F 87% 29.90 in 10.0 mi NW 8.1 mph - N/A   Overcast
7:54 AM 39.9 °F 35.1 °F 36.0 °F 86% 29.95 in 10.0 mi WNW 6.9 mph - N/A   Overcast
8:54 AM 39.2 °F 35.0 °F 35.6 °F 87% 29.96 in 10.0 mi WNW 5.8 mph - N/A   Overcast
9:05 AM 39.2 °F 35.0 °F 35.6 °F 87% 29.97 in 10.0 mi WNW 5.8 mph - N/A   Overcast
9:54 AM 41.0 °F 35.8 °F 33.8 °F 76% 30.02 in 10.0 mi WNW 8.1 mph - N/A   Overcast
10:54 AM 39.9 °F 35.8 °F 35.1 °F 83% 30.06 in 9.0 mi West 5.8 mph - N/A   Overcast
11:54 AM 41.0 °F 36.4 °F 33.1 °F 73% 30.05 in 10.0 mi West 6.9 mph - N/A   Mostly Cloudy
12:54 PM 41.0 °F 36.4 °F 32.0 °F 70% 30.04 in 10.0 mi WSW 6.9 mph - N/A   Overcast
1:54 PM 42.1 °F 36.1 °F 33.1 °F 70% 30.02 in 10.0 mi SW 10.4 mph - N/A   Mostly Cloudy
2:54 PM 41.0 °F 34.3 °F 33.1 °F 73% 30.01 in 10.0 mi SSW 11.5 mph - N/A   Overcast
3:54 PM 39.2 °F 31.6 °F 33.8 °F 81% 30.01 in 10.0 mi SW 12.7 mph - N/A   Overcast
4:54 PM 39.0 °F 32.8 °F 33.1 °F 79% 30.05 in 10.0 mi SW 9.2 mph - N/A   Overcast
5:54 PM 39.0 °F 32.8 °F 33.1 °F 79% 30.03 in 10.0 mi South 9.2 mph - N/A   Overcast
6:46 PM 39.2 °F 31.6 °F 33.8 °F 81% 30.01 in 10.0 mi South 12.7 mph - N/A   Overcast
6:54 PM 39.0 °F 32.3 °F 34.0 °F 82% 30.03 in 10.0 mi South 10.4 mph - N/A   Overcast
7:54 PM 39.0 °F 31.4 °F 35.1 °F 86% 30.03 in 7.0 mi South 12.7 mph - N/A   Overcast
8:54 PM 39.0 °F 30.6 °F 35.1 °F 86% 30.01 in 9.0 mi South 15.0 mph - N/A   Overcast
9:54 PM 39.0 °F 31.4 °F 35.1 °F 86% 29.99 in 10.0 mi SSE 12.7 mph - N/A   Mostly Cloudy
10:14 PM 37.4 °F 30.8 °F 33.8 °F 87% 29.95 in 8.0 mi SSE 9.2 mph - N/A   Scattered Clouds
10:54 PM 37.4 °F 30.8 °F 33.8 °F 87% 29.93 in 8.0 mi SE 9.2 mph - N/A   Partly Cloudy
11:54 PM 37.0 °F 29.8 °F 34.0 °F 89% 29.92 in 8.0 mi SSE 10.4 mph - N/A   Scattered Clouds